Wind_Speed
26 27 28 28 28 28 27 27 28 29 29 29 28 28 28 28 28 28 28 28 26 24 23 21 19 16 15 13 12 11 10 9 9 8 8 8 9 10 10 10 10 10 10 9 9 9 9 9 9 9 9 9 8 8 8 9 9 8 8 7 7 7 7 8 8 8 8 8 7
28 28 28 28 27 27 26 25 26 27 28 29 29 29 29 29 30 30 29 28 26 24 22 20 18 16 15 13 12 11 10 9 9 8 8 8 9 10 10 10 10 10 9 9 8 8 8 9 9 9 9 9 8 8 8 8 9 8 8 7 7 7 8 8 8 8 8 8 8
28 28 27 26 24 24 23 23 24 26 28 29 29 29 30 31 31 30 29 27 25 23 21 19 17 16 15 14 13 11 10 9 8 8 8 9 10 10 10 10 9 9 8 8 8 8 8 8 8 8 8 8 7 7 7 8 9 9 8 8 8 8 8 8 8 8 8 8 8
27 26 25 23 22 23 23 23 25 27 29 29 30 30 31 32 31 30 28 26 24 22 20 19 18 16 15 14 13 11 10 9 8 8 8 9 10 10 10 9 9 8 8 8 8 8 8 8 8 8 7 7 6 6 7 8 9 9 9 9 9 9 9 9 9 9 9 9 8
26 25 23 22 22 23 24 24 26 28 30 31 31 32 32 32 31 29 27 25 24 22 20 19 18 17 15 14 12 11 10 9 9 9 9 9 9 9 9 8 8 8 8 8 8 8 8 8 7 7 7 7 7 7 8 8 9 9 9 10 10 10 9 9 9 9 9 9 8
25 24 23 23 23 23 23 24 26 29 31 32 33 33 32 32 31 29 27 25 24 22 20 19 18 17 15 14 12 11 10 9 9 9 9 9 9 9 8 8 7 8 8 8 7 7 7 7 7 7 7 7 7 8 8 9 9 9 9 9 9 9 9 9 9 9 9 9 9
25 24 24 23 23 23 24 25 27 30 32 33 34 33 33 32 30 28 26 25 23 22 21 19 18 16 15 13 12 11 10 10 10 9 9 9 8 8 8 7 7 7 7 7 7 7 7 7 7 7 7 7 7 8 8 9 9 10 10 9 9 9 9 9 10 10 10 10 10
26 25 24 24 24 24 25 27 28 30 32 33 34 33 33 31 29 28 26 25 24 22 21 19 18 16 14 13 12 11 10 10 10 9 9 8 8 7 7 7 7 7 7 7 7 7 7 6 6 6 7 7 8 8 8 10 10 10 10 10 9 9 10 10 11 11 11 11 11
26 25 24 24 25 26 27 29 30 31 32 33 33 33 32 30 29 28 27 25 24 22 21 19 17 15 14 12 11 11 10 10 9 9 8 8 7 7 7 7 7 7 7 7 6 6 6 6 7 7 7 8 8 8 9 10 11 11 11 11 10 10 10 10 10 10 10 11 12
26 25 25 25 26 27 28 30 31 32 33 34 33 33 32 30 29 28 27 25 24 22 20 19 17 15 14 12 11 11 10 10 9 9 8 8 7 7 7 7 7 7 7 7 6 6 6 7 7 7 7 8 8 9 10 11 11 11 12 12 11 11 11 11 10 10 10 11 11
27 26 26 26 27 28 29 30 31 33 33 33 33 32 31 30 29 28 26 24 23 21 20 18 16 15 13 12 12 11 10 10 9 8 8 7 7 7 7 6 6 6 7 7 6 6 6 7 7 7 8 8 9 10 10 11 11 12 12 12 12 12 12 12 11 10 10 10 11
27 27 27 27 28 29 30 30 32 33 33 33 33 32 31 30 29 27 25 24 22 20 19 17 16 14 13 12 12 11 10 9 9 8 8 7 7 7 6 6 6 6 7 7 7 7 7 7 7 8 8 9 9 10 11 11 12 12 13 13 13 12 12 12 11 10 9 10 11
27 27 27 28 28 29 30 32 33 34 34 33 33 32 31 30 28 26 24 23 21 20 18 17 15 14 13 12 11 11 10 9 9 8 8 7 7 6 6 6 6 6 7 7 7 7 7 7 8 8 9 9 10 10 11 12 12 13 13 13 13 12 12 12 11 10 10 10 11
28 28 28 29 30 31 32 34 34 35 34 34 33 32 31 29 27 25 23 22 21 20 18 17 15 14 13 12 11 11 10 9 9 8 8 7 7 6 6 6 6 6 7 7 7 7 7 8 8 9 9 10 10 11 12 12 13 13 14 14 14 13 13 12 11 11 11 11 12
29 29 30 31 32 33 35 36 36 35 35 34 33 32 30 28 26 25 23 22 20 19 18 16 15 14 13 12 11 11 10 9 9 8 7 7 6 6 6 6 6 7 7 7 7 7 8 8 9 9 10 11 11 12 12 13 13 14 14 14 13 13 13 12 12 12 12 12 13
31 31 32 33 34 36 36 37 36 35 34 33 32 31 29 27 26 24 23 22 20 19 17 16 15 14 13 12 11 11 10 9 9 8 7 7 6 6 6 6 6 7 7 7 8 8 8 9 9 10 11 11 12 12 13 13 13 14 14 14 13 13 13 13 13 13 13 13 13
31 32 33 34 36 37 37 36 35 34 34 33 32 30 29 27 26 25 23 22 20 18 17 16 15 14 13 13 12 11 10 9 9 8 7 6 6 6 6 6 7 7 7 8 8 8 9 9 10 10 11 12 12 13 13 13 14 14 14 14 14 14 14 14 14 14 14 15 15
31 33 34 35 37 37 37 36 35 34 34 33 31 30 29 28 26 25 23 21 19 18 17 16 15 14 13 13 12 11 10 9 8 8 7 6 6 6 6 7 7 8 8 8 8 9 9 10 10 11 12 12 13 13 13 14 14 14 14 14 14 14 14 15 15 15 15 15 15
32 33 35 36 37 38 38 37 36 35 34 33 31 30 29 27 26 24 22 20 18 17 16 15 15 14 13 12 12 11 10 9 8 7 7 7 7 7 7 8 8 8 9 9 9 9 10 10 11 11 12 13 13 14 14 14 14 14 14 14 15 15 15 15 16 16 15 15 15
33 34 35 36 37 38 37 37 36 35 34 33 31 30 28 26 24 23 21 19 18 17 15 15 14 14 13 12 11 10 9 8 8 7 7 7 7 8 8 9 9 9 10 10 10 10 11 11 11 12 12 13 13 14 14 14 14 14 15 15 15 15 16 16 16 15 15 15 16
32 33 35 35 36 36 36 35 35 34 33 32 30 28 27 25 23 21 20 19 18 17 16 15 14 13 13 12 11 10 9 8 8 8 8 8 8 9 9 10 10 10 11 11 11 11 11 11 12 12 12 13 13 13 13 13 14 14 14 15 15 15 16 16 16 16 16 16 16
30 32 32 33 34 34 34 34 33 32 31 30 28 27 25 23 22 20 19 18 17 16 16 15 14 13 12 11 10 10 9 9 8 8 9 9 9 10 10 11 11 12 12 12 12 12 12 12 12 13 13 13 13 13 13 13 14 14 14 15 15 16 16 16 16 16 16 17 17
28 30 31 32 33 33 33 33 32 31 30 29 27 26 24 23 22 20 19 18 17 16 16 15 14 13 12 11 10 9 9 9 9 9 9 10 10 11 12 12 12 13 13 12 12 12 13 13 13 13 13 13 13 13 14 14 14 15 16 16 17 17 17 16 16 16 16 16 16
28 30 31 32 32 32 32 32 31 30 29 28 27 26 24 23 22 21 19 18 17 17 16 15 14 13 12 11 10 10 10 10 10 10 10 11 12 12 13 13 13 13 13 13 13 13 13 13 13 14 13 13 14 14 15 15 15 16 17 17 17 17 17 16 15 15 15 15 15
29 31 32 33 33 33 32 32 31 31 29 28 27 26 24 23 22 21 20 19 18 17 16 15 14 13 12 11 10 10 10 10 10 11 11 12 13 13 14 14 14 14 14 14 13 13 13 14 14 13 13 13 14 15 16 16 17 17 17 17 17 16 16 16 16 15 15 15 15
31 32 33 33 33 33 32 32 31 31 29 28 27 25 24 23 22 21 20 19 18 17 16 15 13 12 12 11 11 11 11 11 11 11 12 13 13 14 14 15 15 15 15 14 14 14 14 14 13 12 12 12 13 14 15 16 17 17 17 17 16 16 16 16 16 16 16 16 16
31 32 33 33 33 33 32 32 31 30 29 28 27 25 24 23 22 21 20 19 18 17 16 14 13 12 12 11 11 11 11 11 12 12 13 13 14 14 15 15 16 15 15 14 14 14 14 14 13 12 12 12 13 14 15 16 16 16 16 17 17 17 16 17 17 17 17 17 16
31 32 32 32 32 32 32 32 31 30 29 28 27 25 24 23 22 21 20 19 18 16 15 14 13 13 12 12 12 12 12 12 12 13 13 14 14 15 15 16 16 16 15 15 14 14 14 14 13 12 12 12 13 14 15 16 16 15 15 15 15 15 16 16 16 16 16 17 16
31 32 32 32 32 32 32 32 31 31 29 28 26 25 24 23 22 21 20 19 18 17 16 15 14 13 13 12 12 12 12 12 13 13 13 14 14 15 15 16 16 16 16 15 15 15 15 14 13 13 12 13 13 13 14 14 14 14 14 14 14 14 14 15 15 16 16 16 16
31 31 32 32 31 31 31 31 31 30 29 27 26 25 24 23 22 21 20 19 18 17 16 15 14 13 13 12 12 12 12 13 13 13 14 14 15 15 16 16 17 16 16 16 15 15 15 14 14 13 13 13 13 13 14 14 14 14 14 14 14 15 15 15 16 16 16 16 17
30 31 31 31 30 30 31 31 31 30 29 28 27 26 24 23 22 21 20 19 18 16 15 14 14 13 13 12 12 12 12 13 13 13 14 14 15 15 16 16 17 17 17 16 16 16 15 15 15 14 13 13 13 14 14 14 14 14 14 15 15 15 16 16 17 17 17 17 17
29 30 30 30 29 29 30 30 29 29 28 28 27 26 24 23 22 21 20 18 17 16 16 15 14 14 13 13 12 12 13 13 13 13 14 14 15 15 16 17 18 18 17 17 16 16 16 16 15 15 14 14 14 15 15 14 15 15 15 16 16 17 17 18 18 18 18 17 17
29 29 29 28 28 28 29 29 28 28 28 28 26 25 24 23 22 21 20 18 18 17 16 16 15 14 13 13 13 12 13 13 13 13 13 14 15 16 17 17 18 18 18 17 16 16 16 16 16 15 15 14 15 15 15 15 15 15 15 16 17 17 18 18 19 19 19 19 18
28 28 28 28 27 27 28 28 28 28 28 26 25 24 24 23 22 21 20 19 18 17 16 15 15 14 13 13 12 12 12 13 13 13 13 14 15 16 17 18 19 19 18 17 17 17 16 16 16 16 15 15 15 15 15 15 15 15 16 17 17 18 18 19 19 20 21 21 20
29 28 27 27 27 27 27 27 28 28 27 25 24 24 23 23 22 21 20 19 18 17 16 15 14 14 13 13 12 12 12 12 13 13 14 14 15 17 18 19 20 19 19 18 17 17 17 17 17 16 16 16 15 15 15 15 16 16 17 17 18 19 19 19 19 20 21 21 20
28 28 27 26 26 26 27 27 28 27 26 25 24 23 23 23 22 21 20 19 18 17 17 16 15 14 14 13 13 12 12 12 13 13 14 15 16 17 19 20 20 20 19 19 18 18 17 17 17 17 16 16 15 15 15 15 15 16 17 17 18 19 19 19 19 19 20 20 20
28 27 26 26 25 26 27 27 27 26 26 25 24 23 23 22 22 21 20 19 18 18 17 16 16 15 14 14 13 12 12 12 13 14 15 16 17 18 19 20 20 20 20 20 19 18 18 18 18 17 17 16 15 15 15 15 15 16 16 17 18 18 18 18 18 18 19 20 20
28 27 26 26 25 26 27 27 27 27 26 25 24 23 23 22 22 21 20 19 19 18 17 17 16 15 14 13 13 12 13 13 13 14 15 16 17 18 19 20 21 21 21 20 20 19 19 19 18 18 17 16 16 15 15 15 15 15 16 16 17 17 17 17 16 16 17 19 19
27 27 26 26 26 27 27 27 27 27 26 25 23 23 22 22 22 21 20 19 19 18 18 17 16 15 14 13 13 13 14 14 14 15 16 17 17 18 19 20 21 21 22 21 21 20 20 20 19 19 18 18 17 16 15 15 15 16 16 16 17 17 17 16 16 16 16 17 17
28 27 26 26 27 27 28 27 27 26 25 24 23 22 22 22 22 21 19 19 18 18 17 17 16 15 14 14 14 14 15 15 16 16 16 17 18 18 19 20 21 22 22 22 22 22 21 21 20 20 19 19 18 17 16 15 15 16 17 17 16 16 16 16 16 15 16 16 16
28 27 26 26 27 27 28 27 26 25 25 23 23 22 22 21 20 20 19 18 18 18 17 17 16 15 15 15 15 15 16 17 17 17 17 18 18 19 20 21 22 22 22 23 23 23 23 22 22 21 21 20 19 17 16 15 16 17 17 17 17 17 16 16 16 16 16 16 16
Wind_Direction
191 193 193 193 193 193 193 194 194 193 191 189 188 188 187 186 186 187 189 191 192 194 196 197 199 200 201 203 206 210 215 221 228 236 247 258 267 274 280 286 289 293 296 299 303 306 309 312 314 316 318 320 319 317 315 316 316 314 310 305 301 299 298 296 293 291 289 286 284
194 195 195 195 195 194 193 193 193 193 192 190 190 189 188 187 188 190 191 192 194 196 197 197 198 199 199 202 205 209 213 219 227 237 249 258 268 274 280 284 289 292 295 298 301 304 306 309 312 314 316 318 319 317 313 312 314 312 308 303 298 296 297 297 295 293 292 290 287
196 197 196 195 193 193 192 192 193 193 192 191 190 189 188 189 190 191 192 194 195 197 197 197 196 197 199 201 204 207 211 218 228 238 249 258 266 273 278 282 287 291 294 297 299 302 305 308 310 312 313 316 317 312 305 306 310 310 306 299 296 296 297 297 296 295 293 293 290
197 197 195 194 193 193 194 194 194 194 193 191 190 189 189 190 191 192 193 194 195 195 196 196 195 196 198 201 203 205 210 218 228 239 250 259 265 271 276 281 285 288 292 295 298 300 303 306 308 310 311 311 309 302 297 301 306 306 303 300 300 299 297 297 297 296 295 294 292
197 197 196 195 196 196 197 197 196 195 193 191 189 188 189 190 191 193 193 193 193 194 195 196 196 197 198 199 201 204 210 218 229 240 249 257 264 269 275 279 282 285 289 293 296 298 301 304 306 307 308 306 304 299 298 301 302 301 301 303 304 303 300 298 296 296 295 294 292
196 197 198 198 198 197 197 197 196 195 193 192 190 189 189 191 192 193 192 192 193 193 194 195 197 197 197 197 199 204 210 220 231 241 249 256 262 268 272 276 279 283 286 290 293 296 299 301 303 304 304 304 302 301 300 303 302 301 301 301 301 301 301 297 296 296 294 292 290
199 199 199 200 199 197 195 195 195 194 193 191 190 189 190 191 192 192 193 193 192 192 192 194 196 196 196 197 200 206 214 223 232 241 248 253 260 264 268 272 276 279 283 286 290 293 296 297 298 298 299 300 299 297 298 301 302 302 301 299 296 296 296 295 295 295 294 291 289
201 202 202 202 199 197 195 195 194 193 192 190 190 190 191 192 192 192 193 193 192 191 192 193 194 196 197 198 202 210 218 226 233 240 246 250 255 260 264 268 272 276 278 282 286 288 289 291 292 291 290 292 293 293 294 298 300 302 301 299 295 293 293 293 294 294 293 291 290
201 202 203 202 199 197 196 196 195 193 191 189 189 191 192 193 192 193 193 192 192 192 193 193 193 194 196 200 206 214 221 227 233 238 242 247 250 254 259 263 268 271 274 278 280 281 283 285 286 286 286 289 290 289 291 296 299 301 301 299 295 292 291 291 291 290 289 289 289
201 201 200 198 197 197 197 196 195 193 190 189 190 191 192 193 193 193 193 193 193 192 192 191 191 193 196 202 209 216 221 227 231 235 239 242 245 249 253 257 262 265 269 272 273 275 277 279 281 282 284 287 288 289 291 295 297 299 299 298 296 294 292 289 287 285 285 285 286
201 200 199 197 197 197 196 195 193 191 190 189 190 191 192 192 193 193 193 193 192 191 191 191 191 193 198 205 211 216 221 225 229 232 234 237 241 244 248 252 257 260 263 265 267 269 272 274 277 279 281 284 288 290 292 295 296 297 297 297 296 295 293 291 289 286 283 281 282
201 200 199 198 198 197 195 193 190 189 189 190 191 191 192 192 192 192 192 191 190 189 190 190 191 195 201 208 212 216 220 223 226 228 230 232 236 241 245 249 254 256 258 260 263 265 269 272 276 278 280 282 285 288 290 294 295 296 295 295 294 292 290 290 290 287 282 279 280
201 200 199 198 198 197 194 192 190 189 189 190 191 191 190 190 191 191 190 189 189 189 188 189 192 197 204 209 213 216 218 220 222 224 226 229 234 239 243 247 251 253 255 257 261 265 268 272 276 279 281 282 284 286 289 292 294 294 293 293 291 288 287 287 287 285 282 279 280
201 200 199 198 197 195 193 191 190 190 190 190 190 189 189 188 189 189 188 188 188 189 189 190 193 198 204 209 213 215 217 218 218 220 222 227 233 237 242 246 250 252 253 257 261 265 269 272 277 281 282 284 284 286 289 292 292 292 292 291 289 287 286 285 285 284 282 281 280
200 200 199 198 196 193 191 190 189 189 189 188 188 188 187 187 186 187 187 187 188 190 191 193 195 198 203 207 211 213 214 215 216 218 221 226 232 238 243 247 250 252 255 258 263 267 270 273 277 280 283 285 288 289 290 291 291 291 291 290 288 287 286 285 284 283 282 281 281
198 198 197 195 193 191 189 188 188 188 187 187 187 187 186 186 185 185 186 187 188 190 192 195 197 199 201 204 208 210 211 213 214 217 221 226 232 238 244 248 251 254 258 261 266 269 272 275 277 281 284 287 290 292 292 291 291 290 289 288 287 286 285 285 285 284 283 283 282
196 195 194 192 190 188 187 187 187 186 186 187 187 187 187 186 185 185 186 187 189 190 193 196 198 199 200 202 205 207 209 211 214 218 222 229 235 241 246 251 255 258 262 265 268 270 272 275 278 282 285 289 292 293 293 292 291 289 288 287 286 286 286 286 286 286 286 286 283
194 193 192 191 189 188 187 187 187 187 188 188 188 188 187 186 185 185 186 188 190 192 194 196 198 200 201 202 204 207 209 212 215 220 226 232 240 245 252 256 260 264 267 269 270 271 272 275 278 282 286 290 292 294 294 293 291 289 288 287 286 286 287 288 289 289 288 286 285
194 193 192 190 189 188 188 188 189 189 189 189 189 188 187 186 185 185 186 187 190 193 195 196 197 200 202 203 205 208 211 214 218 224 231 237 244 250 256 261 265 268 270 271 271 272 273 275 279 282 286 289 292 293 293 292 291 290 289 289 289 290 290 291 292 290 288 285 284
194 193 191 190 189 188 188 188 189 189 189 189 188 186 185 185 185 185 186 188 190 193 196 198 198 199 201 204 206 209 212 217 222 228 234 241 247 253 259 264 268 270 271 272 272 273 274 276 279 282 285 288 290 291 291 291 291 291 291 291 292 293 293 293 292 289 286 285 283
193 192 190 188 187 187 187 188 188 189 188 187 185 184 183 183 185 187 188 189 190 192 195 198 199 200 201 204 206 209 214 220 225 231 237 244 250 257 262 266 269 270 271 271 272 273 275 277 279 282 285 287 288 289 289 289 289 289 289 290 290 291 292 291 290 288 286 285 284
191 190 188 187 186 186 186 187 188 187 187 185 184 183 183 184 186 188 189 190 191 192 194 197 200 202 203 205 207 211 216 223 228 234 241 248 254 259 264 267 268 269 270 271 271 273 275 278 280 283 285 287 287 288 288 288 288 288 288 289 288 289 289 289 288 287 286 285 285
189 187 186 186 186 186 186 187 187 186 185 184 183 183 183 185 186 188 189 190 191 192 194 196 199 201 204 207 211 215 220 226 231 238 244 251 256 260 263 265 267 268 269 269 271 272 275 277 280 283 286 287 289 290 290 291 291 291 292 292 291 290 290 289 287 286 285 284 284
187 186 186 186 186 186 187 187 186 185 184 183 183 183 184 185 187 188 189 190 192 193 195 196 199 202 205 209 214 219 224 229 235 241 247 252 256 259 261 264 265 267 268 269 270 272 274 277 281 284 288 290 292 293 293 294 295 295 295 294 292 291 290 288 286 284 282 282 283
188 187 187 186 186 186 187 186 185 184 184 183 183 184 185 186 187 188 188 190 192 194 195 197 199 203 206 211 216 222 228 235 241 246 249 253 256 258 260 262 264 265 267 268 270 272 274 278 282 286 290 292 292 293 293 295 295 293 291 289 288 287 287 287 285 284 282 282 282
188 187 186 186 186 186 185 185 184 184 184 184 184 184 185 186 187 188 189 190 192 194 196 198 201 204 208 214 220 226 232 238 244 248 251 253 255 257 259 260 262 264 266 268 269 271 274 278 282 285 286 284 283 283 284 286 288 288 286 285 284 283 283 285 286 285 284 284 284
187 186 186 186 185 184 184 184 184 183 184 184 184 185 186 187 188 188 190 191 193 195 197 200 203 207 212 218 224 230 236 242 246 249 252 253 255 257 258 260 261 264 266 267 269 270 273 278 281 281 278 275 275 275 276 279 281 283 283 283 283 282 281 282 284 286 287 286 285
186 186 185 185 184 183 183 183 183 183 184 184 185 185 186 187 188 189 191 192 194 196 199 202 206 210 216 222 228 235 240 244 247 250 252 254 255 257 258 260 262 264 266 267 268 270 273 278 280 279 275 273 273 275 276 278 280 280 280 279 279 279 279 280 281 284 286 287 287
186 185 184 183 182 182 182 182 183 184 184 185 185 186 187 188 189 190 192 194 195 198 201 204 208 213 219 225 232 237 242 246 248 250 252 254 256 257 259 261 263 266 267 268 268 270 274 277 279 279 277 275 274 275 277 277 278 278 276 275 275 275 276 277 279 282 284 285 286
185 184 183 182 181 181 181 182 183 184 185 185 186 187 188 189 190 192 193 195 197 200 204 207 212 217 223 229 234 239 243 246 249 251 253 255 257 259 261 263 265 267 268 268 269 271 274 277 280 281 280 278 276 275 275 275 275 275 274 273 273 274 275 277 278 279 280 282 284
185 184 183 181 180 180 181 182 183 184 184 185 186 188 189 190 192 194 196 198 200 203 207 211 216 221 226 232 237 241 245 249 251 253 255 257 260 262 264 265 267 268 269 269 269 271 274 277 280 282 282 280 277 275 273 272 272 272 272 272 272 273 275 276 277 277 278 279 281
184 183 182 180 180 180 181 182 183 184 185 186 188 189 190 192 194 196 198 200 202 205 209 213 218 223 229 234 239 244 247 250 253 255 258 260 262 264 266 267 268 269 270 270 270 271 274 278 281 283 283 281 278 276 274 272 272 271 270 270 271 272 273 275 275 276 277 277 278
184 182 181 180 179 179 180 181 182 184 186 187 189 190 192 194 196 198 200 202 205 208 212 216 220 225 230 236 241 246 249 253 256 259 261 263 265 266 267 267 268 269 271 271 271 272 275 279 282 283 284 282 280 277 274 272 272 271 270 269 270 271 273 274 274 274 275 275 275
183 182 180 179 179 179 180 181 183 185 187 188 190 192 194 196 198 200 202 204 207 210 214 219 223 228 234 239 244 248 252 256 259 262 263 265 265 266 266 267 268 271 272 272 272 273 276 279 282 283 284 283 281 278 274 272 270 269 269 270 271 272 272 272 272 273 273 275 275
183 181 180 179 179 179 180 182 184 186 187 188 191 194 196 198 200 202 204 206 209 213 217 221 226 231 236 241 246 250 255 259 262 265 266 266 266 266 266 267 270 273 274 274 274 274 276 279 282 284 284 283 280 277 275 273 271 270 270 270 271 272 272 272 271 272 273 274 274
183 181 180 179 179 180 182 184 185 186 188 190 193 195 198 201 203 205 206 209 211 215 219 223 228 233 237 242 248 253 258 262 265 267 268 268 266 266 267 269 272 274 276 275 275 275 277 279 281 283 284 282 278 276 274 273 271 270 270 270 271 271 271 271 271 271 272 273 273
183 181 180 179 180 181 183 185 186 188 190 192 195 197 200 202 205 207 209 211 214 218 222 226 230 234 239 245 251 257 262 265 267 268 268 268 267 267 268 270 273 275 277 277 276 276 277 279 281 283 282 279 276 274 273 272 271 270 270 269 270 270 270 270 269 269 270 272 273
183 182 181 180 181 183 185 186 188 189 192 195 197 199 202 204 206 209 211 213 216 219 223 228 232 237 243 249 256 262 266 268 268 268 268 268 268 268 269 271 273 276 278 278 278 278 278 279 281 282 281 277 275 273 273 271 269 268 268 268 269 269 269 268 267 267 268 270 270
184 183 183 183 183 185 187 188 190 192 194 196 198 201 204 206 209 211 213 215 219 223 226 231 236 241 247 253 259 263 267 269 270 270 269 269 269 270 271 271 273 277 279 280 280 280 280 280 281 281 280 277 274 272 271 270 268 267 266 267 268 269 268 266 265 265 266 266 267
185 184 184 185 186 187 189 190 192 194 196 198 200 203 206 208 211 214 215 218 222 226 230 235 240 245 251 255 259 264 267 270 271 272 272 272 273 273 273 273 274 277 279 281 281 282 282 282 282 281 280 277 273 270 269 267 266 266 265 265 265 268 269 268 266 265 265 266 267
186 186 186 187 189 190 191 193 194 196 198 200 203 205 208 211 213 216 219 221 225 229 233 238 243 248 253 257 260 264 267 270 272 274 275 276 276 276 275 275 276 278 279 280 281 282 282 282 282 281 279 276 272 269 266 265 265 264 264 263 264 266 268 270 269 267 267 268 269
Height
803 804 805 806 808 809 810 812 813 815 816 818 819 820 821 823 824 825 827 828 829 830 830 831 832 833 834 834 835 836 836 837 838 838 838 839 839 839 840 840 840 840 841 841 841 841 841 841 840 840 840 840 840 839 839 839 839 839 838 838 838 838 838 837 837 837 837 836 836
802 803 804 806 807 808 810 812 813 814 815 817 818 819 820 821 823 824 825 827 828 828 829 830 831 832 833 833 834 835 835 836 837 837 838 838 838 838 839 839 839 840 840 840 840 840 840 840 840 839 839 839 839 838 838 838 838 838 838 838 837 837 837 836 836 836 835 835 834
801 803 804 806 807 808 810 811 812 813 814 816 817 818 819 820 821 823 824 826 827 828 828 829 830 831 832 833 833 834 834 835 836 836 837 837 838 838 838 838 839 839 839 839 839 839 839 839 839 838 838 838 838 838 838 838 837 837 837 837 837 836 836 835 835 835 834 834 833
801 802 804 805 806 808 808 810 811 812 813 814 816 817 818 819 821 822 823 824 826 827 828 828 829 830 831 832 832 833 833 834 835 835 836 836 837 837 837 838 838 838 838 838 838 838 838 838 838 838 838 838 837 837 837 837 837 836 836 836 835 835 835 834 834 833 833 833 832
800 802 803 804 805 806 807 808 809 811 812 813 814 816 817 818 820 821 822 823 824 826 826 827 828 829 830 831 831 832 833 833 834 834 835 835 836 836 836 837 837 837 837 837 837 837 837 837 837 837 837 837 837 836 836 836 836 836 835 835 834 834 833 833 833 832 832 832 831
800 801 802 803 804 805 807 808 808 809 811 812 813 815 816 818 819 820 821 822 823 824 826 827 827 828 829 830 830 831 832 832 833 833 834 834 835 835 835 836 836 836 836 836 836 836 836 836 836 836 836 836 836 835 835 835 835 835 834 834 833 833 833 832 832 831 831 830 830
798 800 801 802 803 804 806 807 808 808 810 811 812 813 815 816 818 819 820 821 822 823 824 826 826 827 828 829 829 830 831 831 832 833 833 833 834 834 834 835 835 835 835 835 835 835 835 835 835 835 835 835 835 835 834 834 834 834 833 833 833 832 832 831 831 830 830 829 829
798 799 800 801 802 803 804 805 806 808 809 810 811 813 814 815 817 818 819 820 821 822 823 824 825 826 827 828 828 829 830 831 831 832 832 833 833 833 833 834 834 834 834 834 834 834 834 834 834 834 834 834 834 834 833 833 833 833 832 832 832 831 831 830 829 829 828 828 828
797 798 799 800 801 802 803 804 805 807 808 809 810 812 813 815 816 817 818 819 820 821 822 823 824 825 826 827 828 828 829 829 830 831 831 832 832 832 833 833 833 833 833 833 833 833 833 833 833 833 833 833 833 833 833 832 832 831 831 831 830 830 830 829 828 828 828 827 826
795 797 798 799 800 801 802 803 805 806 807 808 810 811 813 814 815 816 817 818 819 820 821 823 823 824 825 826 827 827 828 828 829 829 830 831 831 831 832 832 832 832 832 832 832 833 833 833 833 833 832 832 832 832 832 831 831 830 830 829 829 829 828 828 828 827 827 826 825
794 795 796 798 799 800 802 803 804 806 807 808 809 810 812 813 814 815 816 817 818 819 820 821 822 823 824 825 826 826 827 828 828 828 829 829 830 830 831 831 831 831 831 831 831 832 832 832 832 832 831 831 831 831 830 830 830 829 829 828 828 827 827 827 826 826 825 825 824
793 794 795 797 798 800 801 803 804 805 806 807 808 809 811 812 813 814 815 816 818 818 819 820 821 822 823 824 825 825 826 827 827 828 828 828 829 829 830 830 830 830 830 830 830 831 831 831 831 830 830 830 830 829 829 829 828 828 828 827 827 826 826 825 825 824 824 824 823
792 793 795 796 798 799 800 802 803 804 805 806 807 808 809 811 812 813 814 815 816 817 818 819 821 822 822 823 824 824 825 826 826 827 827 828 828 828 828 829 829 829 829 829 829 829 829 829 829 829 829 829 829 828 828 828 827 827 826 826 825 825 824 824 823 823 823 823 822
791 792 793 795 796 798 799 801 802 803 803 805 806 807 808 809 811 812 813 814 815 816 817 818 820 821 821 822 823 823 824 825 825 826 826 827 827 827 828 828 828 828 828 828 828 828 828 828 828 828 828 828 828 827 827 826 826 825 825 824 824 823 823 823 822 822 822 821 820
790 791 792 793 795 796 798 798 800 801 802 803 804 806 807 808 810 811 812 813 814 815 816 818 818 819 820 821 822 823 823 824 824 825 825 826 826 826 827 827 827 827 827 827 827 827 827 827 827 827 827 826 826 826 825 825 824 824 823 823 823 822 822 821 821 821 820 820 819
788 789 790 792 793 794 795 796 798 799 800 802 803 804 806 808 809 810 811 812 813 814 815 817 818 818 819 820 821 822 822 823 823 824 824 825 825 825 826 826 826 826 826 826 826 826 826 826 826 826 825 825 825 824 824 824 823 823 822 822 821 821 820 820 819 819 818 818 818
786 788 788 790 791 792 793 795 796 798 799 800 802 804 805 806 808 809 810 811 812 813 815 816 817 818 818 819 820 821 821 822 822 823 823 823 824 824 824 825 825 825 825 825 825 825 825 824 824 824 824 824 823 823 823 822 822 821 821 820 820 819 819 818 818 818 817 816 816
785 786 787 788 790 791 792 793 795 797 798 800 801 803 804 805 807 808 809 810 811 813 813 815 816 817 817 818 819 819 820 821 821 822 822 823 823 823 823 823 823 823 823 824 824 824 823 823 823 823 823 822 822 822 821 821 820 820 819 819 818 818 817 817 816 816 815 815 814
783 785 786 787 788 790 791 793 794 795 797 798 800 802 803 804 806 807 808 809 811 812 813 814 815 816 816 817 818 818 819 820 820 821 821 822 822 822 822 822 822 822 822 823 823 823 822 822 822 822 822 821 821 820 820 819 819 818 818 818 817 816 816 815 815 814 814 813 813
782 783 785 786 787 789 790 792 793 794 796 798 799 801 802 804 805 806 808 809 810 811 812 813 813 814 815 816 817 817 818 818 819 820 820 820 821 821 821 821 821 821 821 821 821 821 821 821 821 821 820 820 820 819 819 818 818 817 817 816 816 815 814 814 813 813 813 812 812
781 783 784 785 787 788 790 791 793 794 796 797 799 800 802 803 805 806 807 808 809 810 811 812 813 813 814 815 816 816 817 818 818 818 819 819 819 820 820 820 820 820 820 820 820 820 820 820 820 819 819 819 818 818 818 817 817 816 816 815 814 814 813 813 812 812 811 811 810
781 783 784 786 787 788 790 791 793 794 796 798 799 801 802 803 805 806 807 808 808 809 810 811 812 813 813 814 815 815 816 817 817 818 818 818 818 818 819 819 819 819 819 819 818 818 818 818 818 818 818 818 817 817 817 816 815 815 814 814 813 813 812 812 811 811 810 809 808
781 783 784 786 787 789 790 792 793 794 796 798 799 800 802 803 804 805 806 807 808 808 809 810 811 812 813 813 814 814 815 816 816 816 817 817 817 817 818 818 818 818 818 818 817 817 817 817 817 817 817 816 816 815 815 814 814 813 813 812 812 811 811 810 810 809 808 808 807
781 783 784 786 787 789 790 791 793 794 796 797 798 800 801 802 803 804 805 806 807 808 808 809 810 811 812 812 813 813 814 814 815 815 816 816 816 816 816 816 816 816 816 816 816 816 816 816 816 815 815 815 814 814 813 813 812 812 811 811 810 809 809 808 808 808 807 807 806
781 782 784 785 787 788 789 791 792 794 795 796 798 799 800 801 802 803 804 805 806 807 808 808 809 810 811 811 812 813 813 813 814 814 814 815 815 815 815 815 815 815 815 815 815 815 815 814 814 814 813 813 813 812 811 811 811 810 810 809 809 808 808 807 807 806 806 805 804
780 781 783 784 786 787 789 790 792 793 794 796 797 798 799 800 802 803 803 804 805 806 807 808 808 809 810 811 811 812 812 813 813 813 813 813 813 814 814 814 814 813 813 813 813 813 813 813 813 813 813 812 812 811 811 810 809 809 808 808 808 807 806 805 805 804 804 803 803
779 780 782 783 785 787 788 789 791 792 793 795 796 798 798 800 801 802 803 803 804 805 806 807 808 808 809 810 810 811 811 811 812 812 812 812 812 813 813 813 812 812 812 812 812 812 812 812 812 812 811 811 811 810 809 809 808 808 807 807 806 805 805 804 803 803 802 802 801
778 779 781 783 784 786 787 789 790 792 793 794 795 797 798 799 800 801 802 803 803 804 805 806 807 808 808 808 809 809 810 810 810 811 811 811 811 811 811 811 811 811 811 811 811 811 811 810 810 810 810 810 809 809 808 808 807 806 806 805 804 803 803 802 802 801 800 800 799
777 778 780 782 784 785 787 788 789 791 792 793 795 796 797 798 799 800 801 802 803 803 804 805 806 806 807 808 808 808 809 809 809 809 810 810 810 810 810 810 809 809 809 809 809 809 809 809 809 808 808 808 808 807 807 806 805 805 804 803 803 802 802 801 800 799 799 798 798
776 778 779 781 783 784 786 787 788 790 792 793 794 795 796 797 798 799 800 801 802 802 803 804 804 805 806 806 807 807 808 808 808 808 808 808 808 808 808 808 808 808 808 808 808 808 808 807 807 807 807 807 806 806 805 804 804 803 803 802 801 801 800 799 799 798 797 797 796
776 778 779 780 782 783 785 786 788 789 791 792 793 794 795 796 797 798 799 800 801 801 802 803 803 804 805 805 806 806 806 807 807 807 807 807 807 807 807 807 806 806 806 806 806 806 806 806 805 805 805 805 804 804 803 803 802 802 801 800 799 799 798 798 797 796 796 795 794
776 777 778 780 782 783 784 786 788 789 790 791 792 793 794 795 796 797 798 799 800 800 801 802 803 803 804 804 805 805 805 805 805 805 805 805 805 805 805 805 805 805 805 805 805 804 804 804 803 803 803 803 803 802 802 801 800 800 799 798 798 797 796 796 795 794 794 793 793
775 777 778 779 781 782 784 785 787 788 789 790 791 792 793 794 795 796 797 798 798 799 800 801 801 802 803 803 803 804 804 804 804 804 804 804 804 804 804 803 803 803 803 803 803 803 803 802 802 802 801 801 801 800 800 799 798 798 797 796 795 795 794 794 793 793 792 791 791
775 776 778 779 780 782 783 785 786 787 788 789 791 792 793 793 794 795 796 797 797 798 799 799 800 801 801 802 802 803 803 803 803 803 803 803 803 803 802 802 802 801 801 801 801 801 801 800 800 800 799 799 799 798 798 797 797 796 795 794 793 793 792 792 791 790 790 789 789
774 776 777 778 780 781 783 784 785 786 788 788 789 790 791 792 793 794 795 795 796 797 798 798 799 800 800 801 801 801 801 801 801 801 801 801 801 801 801 800 800 799 799 799 799 799 799 798 798 798 798 797 797 796 796 795 794 794 793 792 792 791 790 790 789 788 788 787 787
773 775 776 778 779 781 782 783 784 785 786 788 788 789 790 791 792 793 794 794 795 796 797 798 798 798 799 799 799 799 800 800 800 800 800 800 799 799 799 798 798 798 798 798 797 797 797 797 796 796 796 795 795 794 794 793 793 792 791 790 790 789 788 788 787 787 786 785 785
773 774 776 777 778 780 781 782 783 784 785 786 787 788 789 790 791 792 793 793 794 795 796 796 797 797 798 798 798 798 798 798 798 798 798 798 798 798 797 797 796 796 796 795 795 795 795 795 794 794 794 793 793 793 792 791 791 790 789 788 788 787 786 786 785 784 784 783 783
772 774 775 776 778 779 780 781 782 783 784 785 786 787 788 789 790 791 792 792 793 794 794 795 795 796 796 796 797 797 797 797 797 797 797 796 796 796 795 795 794 794 793 793 793 793 793 793 792 792 792 792 791 791 790 789 789 788 787 786 786 785 784 784 783 783 782 781 780
772 773 774 776 777 778 779 780 781 782 783 784 785 786 787 788 789 789 790 791 792 793 793 794 794 794 795 795 795 795 795 795 795 795 795 794 794 794 793 793 792 792 792 791 791 791 791 791 790 790 790 790 789 789 788 788 787 786 785 784 784 783 783 782 781 780 779 779 778
771 773 774 775 776 777 778 779 780 781 782 783 784 785 786 787 788 788 789 790 791 792 792 793 793 793 793 794 794 793 793 793 793 793 793 793 793 792 792 791 790 790 789 789 789 789 788 788 788 788 788 788 787 787 786 786 785 784 783 783 782 781 780 780 779 778 778 777 776
771 772 773 774 775 776 777 778 779 780 782 783 783 784 785 786 787 788 789 789 790 791 791 791 792 792 792 792 792 792 792 792 792 791 791 791 791 790 790 789 788 788 788 787 787 787 786 786 786 786 786 786 785 785 784 784 783 782 781 780 780 779 778 778 777 776 776 775 774